Flag for Philippines Weather past 2 weeks in Olongapo, Philippines

Now
77 °F

Passing clouds.


Feels Like: 79 °F
Forecast: 74 / 86 °F
Wind: 10 mph from Northeast

Location: Subic Bay Weather Station

Current Time: Dec 19, 2014 at 12:03:13 AM

Latest Report: Dec 18, 2014 at 11:00 PM


Visibility: N/A

Pressure: 29.98 "Hg

Humidity: 65%

Dew point: 64 °F

Location of OlongapoLocation

Historic Weather in Olongapo — Graph

°F

Olongapo temperature yesterday

Maximum temperature yesterday: 84 °F (at 12:00 PM)
Minimum temperature yesterday: 75 °F (at 7:00 AM)
Average temperature yesterday: 80 °F

Past Weeks' High & Low Weather Summary

 TemperatureHumidityPressure
High90 °F (Dec 4, 2:00 PM)100% (Dec 12, 6:00 AM)29.98 "Hg (Dec 12, 6:00 AM)
Low72 °F (Dec 8, 6:00 AM)43% (Dec 7, 2:00 PM)29.65 "Hg (Dec 8, 2:00 PM)
Average81 °F70%29.85 "Hg
* Reported Dec 3 11:00 PM — Dec 18 10:00 PM, Olongapo, Weather by CustomWeather, © 2014

Note: Actual official high and low records may vary slightly from our data, if they occured in-between our weather recording intervals... More about our weather records

Advertising

Olongapo weather history for previous 24 hours

 ConditionsComfort  
Time TempWeatherWind HumidityBarometerVisibility
10:00 PM
Dec 18
77 °FPassing clouds.13 mph65%29.98 "HgN/A
9:00 PM77 °FPassing clouds.12 mph65%29.98 "HgN/A
8:00 PM77 °FPassing clouds.15 mph65%29.98 "HgN/A
7:00 PM77 °FPassing clouds.14 mph65%29.95 "HgN/A
6:00 PM79 °FPassing clouds.14 mph61%29.92 "HgN/A
5:00 PM81 °FPartly sunny.16 mph58%29.89 "HgN/A
4:00 PM82 °FPartly sunny.16 mph58%29.89 "HgN/A
3:00 PM82 °FPartly sunny.23 mph55%29.89 "HgN/A
2:00 PM84 °FPartly sunny.22 mph55%29.89 "HgN/A
1:00 PM84 °FWarm.24 mph55%29.92 "HgN/A
12:00 PM84 °FPassing clouds.17 mph51%29.95 "HgN/A
11:00 AM82 °FPartly sunny.20 mph55%29.95 "HgN/A
10:00 AM81 °FPartly sunny.16 mph58%29.98 "HgN/A
9:00 AM79 °FPartly sunny.14 mph61%29.98 "HgN/A
8:00 AM77 °FPartly sunny.10 mph61%29.98 "HgN/A
7:00 AM75 °FPartly sunny.12 mph65%29.95 "HgN/A
2:00 AM77 °FPassing clouds.13 mph61%29.89 "HgN/A
Weather by CustomWeather, © 2014

See weather overviewHow to use our weather pages